EW1392 Weather Reports


Display with metric or nautical units.
time (UTC)temp
F
wind
direction
speed
MPH
gust
MPH
rain 1hr
in
rain 24hr
in
rain mn
in
humidity
%
barometer
mb
20260505204514 82 176 0.0 2.0 0.00 0.00 0.00 29 1008.1
20260505203012 82 221 0.0 3.0 0.00 0.00 0.00 29 1008.3
20260505201509 81 264 0.0 3.0 0.00 0.00 0.00 31 1008.3
20260505200011 79 85 0.0 2.0 0.00 0.00 0.00 34 1008.6
20260505194502 78 257 0.0 2.0 0.00 0.00 0.00 37 1008.8
20260505193105 78 65 0.0 1.0 0.00 0.00 0.00 36 1008.9
20260505191609 77 248 0.0 2.0 0.00 0.00 0.00 38 1009.1
20260505190055 76 216 0.0 3.0 0.00 0.00 0.00 40 1009.2
20260505184556 75 213 0.0 0.0 0.00 0.00 0.00 41 1009.5
20260505183048 74 225 0.0 0.0 0.00 0.00 0.00 43 1009.6
20260505181554 73 225 0.0 0.0 0.00 0.00 0.00 44 1009.8
20260505180043 72 177 0.0 0.0 0.00 0.00 0.00 49 1009.9
20260505174539 70 215 0.0 0.0 0.00 0.00 0.00 48 1009.9
20260505173037 69 225 0.0 0.0 0.00 0.00 0.00 50 1010.1
20260505171532 68 226 0.0 0.0 0.00 0.00 0.00 53 1010.1
20260505170032 67 226 0.0 0.0 0.00 0.00 0.00 55 1010.2
20260505164527 65 226 0.0 0.0 0.00 0.00 0.00 57 1010.3
20260505163023 65 223 0.0 0.0 0.00 0.00 0.00 56 1010.4
20260505161535 64 223 0.0 0.0 0.00 0.00 0.00 62 1010.4
20260505153012 53 294 0.0 0.0 0.00 0.00 0.00 89 1010.8
20260505151507 51 294 0.0 0.0 0.00 0.00 0.00 93 1010.8
20260505130111 43 294 0.0 0.0 0.00 0.00 0.00 94 1010.1
20260505124556 43 294 0.0 0.0 0.00 0.00 0.00 93 1010.1
20260505123056 43 180 0.0 0.0 0.00 0.00 0.00 93 1010.0
20260505121553 43 180 0.0 0.0 0.00 0.00 0.00 93 1009.9
20260505120054 44 180 0.0 0.0 0.00 0.00 0.00 92 1009.8
20260505114551 44 180 0.0 0.0 0.00 0.00 0.00 92 1009.7
20260505113048 44 180 0.0 0.0 0.00 0.00 0.00 91 1009.8
20260505111546 45 180 0.0 0.0 0.00 0.00 0.00 92 1009.7
20260505101544 46 180 0.0 0.0 0.00 0.00 0.00 90 1009.4
20260505100036 47 180 0.0 0.0 0.00 0.00 0.00 89 1009.2
20260505094534 47 180 0.0 0.0 0.00 0.00 0.00 89 1009.1
20260505093034 47 180 0.0 0.0 0.00 0.00 0.00 88 1009.1
20260505091534 48 180 0.0 0.0 0.00 0.00 0.00 87 1009.1
20260505090039 48 180 0.0 0.0 0.00 0.00 0.00 86 1008.9
20260505084526 49 180 0.0 0.0 0.00 0.00 0.00 87 1008.9
20260505083023 49 180 0.0 0.0 0.00 0.00 0.00 86 1008.9
20260505081521 50 180 0.0 0.0 0.00 0.00 0.00 85 1008.8
20260505080036 50 180 0.0 0.0 0.00 0.00 0.00 84 1008.7
20260505074520 51 180 0.0 0.0 0.00 0.00 0.00 84 1008.7
20260505073026 51 180 0.0 0.0 0.00 0.00 0.00 82 1008.6
20260505071511 52 180 0.0 0.0 0.00 0.00 0.00 82 1008.3
20260505070009 53 180 0.0 0.0 0.00 0.00 0.00 80 1008.1
20260505064508 54 180 0.0 0.0 0.00 0.00 0.00 80 1008.0
20260505063007 54 180 0.0 0.0 0.00 0.00 0.00 78 1008.0
20260505061507 55 180 0.0 0.0 0.00 0.00 0.00 77 1008.1
20260505060007 56 180 0.0 0.0 0.00 0.00 0.00 75 1007.8
20260505054507 57 180 0.0 0.0 0.00 0.00 0.00 73 1007.7
20260505053006 58 180 0.0 0.0 0.00 0.00 0.00 71 1007.6
20260505051506 59 180 0.0 0.0 0.00 0.00 0.00 68 1007.5
20260505041503 65 180 0.0 0.0 0.00 0.00 0.00 59 1006.7
20260505040003 67 180 0.0 1.0 0.00 0.00 0.00 55 1006.5
20260505034502 69 88 0.0 1.0 0.00 0.00 0.00 53 1006.2
20260505033002 70 165 0.0 1.0 0.00 0.00 0.00 49 1005.9
20260505031604 71 165 0.0 4.0 0.00 0.00 0.00 47 1005.8
20260505024559 73 256 0.0 2.0 0.00 0.00 0.00 45 1005.3
20260505023059 74 291 0.0 3.0 0.00 0.00 0.00 42 1005.1
20260505021559 75 302 0.0 3.0 0.00 0.00 0.00 42 1005.1
20260505014606 76 217 1.0 5.0 0.00 0.00 0.00 37 1004.8
20260505013057 78 200 0.0 4.0 0.00 0.00 0.00 37 1004.8
20260505011557 78 14 0.0 5.0 0.00 0.00 0.00 35 1004.7
20260505010056 79 312 0.0 4.0 0.00 0.00 0.00 35 1004.6
20260505004558 80 229 0.0 7.0 0.00 0.00 0.00 34 1004.5
20260505003054 81 213 0.0 1.0 0.00 0.00 0.00 32 1004.4
20260505001555 81 170 0.0 5.0 0.00 0.00 0.00 29 1004.4
20260505000057 82 207 1.0 4.0 0.00 0.00 0.00 28 1004.3
20260504234553 83 187 0.0 6.0 0.00 0.00 0.00 27 1004.3
20260504233052 83 211 0.0 3.0 0.00 0.00 0.00 26 1004.2
20260504231553 84 163 0.0 6.0 0.00 0.00 0.00 24 1004.3
20260504230051 85 182 0.0 7.0 0.00 0.00 0.00 24 1004.5
20260504224549 84 96 0.0 7.0 0.00 0.00 0.00 25 1004.5
20260504223048 84 182 1.0 5.0 0.00 0.00 0.00 24 1004.5
20260504221547 84 137 0.0 4.0 0.00 0.00 0.00 24 1004.6
20260504220046 84 205 0.0 4.0 0.00 0.00 0.00 26 1004.7
20260504214553 84 67 0.0 4.0 0.00 0.00 0.00 25 1004.7
20260504213043 84 167 0.0 4.0 0.00 0.00 0.00 24 1004.9
20260504211543 84 243 0.0 5.0 0.00 0.00 0.00 26 1004.9
20260504210054 84 186 0.0 6.0 0.00 0.00 0.00 24 1005.1
20260504204556 84 175 0.0 2.0 0.00 0.00 0.00 24 1005.2